This is the latest recevied weather packets stored in our database for station/object JL1CBB-13. If no packets are shown the sender has not sent any weather packets the latest 10 day(s).
| Time | Temp. | Humidity | Pressure | Rain* | Wind** | Luminosity | Snow |
|---|---|---|---|---|---|---|---|
| 1777959716 | 26.11° C | 9% | 1021 hPa | 0 mm | - | - | - |
| 1777959115 | 27.22° C | 9% | 1021 hPa | 0 mm | - | - | - |
| 1777958515 | 28.33° C | 10% | 1022 hPa | 0 mm | - | - | - |
| 1777957915 | 28.33° C | 12% | 1022 hPa | 0 mm | - | - | - |
| 1777957315 | 27.78° C | 11% | 1022 hPa | 0 mm | - | - | - |
| 1777956715 | 27.22° C | 12% | 1022 hPa | 0 mm | - | - | - |
| 1777956115 | 26.67° C | 11% | 1022 hPa | 0 mm | - | - | - |
| 1777955514 | 26.67° C | 11% | 1022 hPa | 0 mm | - | - | - |
| 1777954914 | 26.67° C | 11% | 1022 hPa | 0 mm | - | - | - |
| 1777954314 | 27.22° C | 14% | 1022 hPa | 0 mm | - | - | - |
| 1777953714 | 27.22° C | 14% | 1022 hPa | 0 mm | - | - | - |
| 1777953114 | 28.89° C | 12% | 1021 hPa | 0 mm | - | - | - |
| 1777952514 | 29.44° C | 8% | 1022 hPa | 0 mm | - | - | - |
| 1777951916 | 28.89° C | 7% | 1022 hPa | 0 mm | - | - | - |
| 1777951315 | 27.78° C | 8% | 1021 hPa | 0 mm | - | - | - |
| 1777950715 | 28.33° C | 7% | 1021 hPa | 0 mm | - | - | - |
| 1777950115 | 27.78° C | 8% | 1021 hPa | 0 mm | - | - | - |
| 1777949515 | 27.78° C | 9% | 1022 hPa | 0 mm | - | - | - |
| 1777948915 | 27.22° C | 10% | 1022 hPa | 0 mm | - | - | - |
| 1777948315 | 27.22° C | 11% | 1022 hPa | 0 mm | - | - | - |
| 1777947714 | 27.22° C | 12% | 1022 hPa | 0 mm | - | - | - |
| 1777947114 | 26.67° C | 12% | 1022 hPa | 0 mm | - | - | - |
| 1777946514 | 25.56° C | 13% | 1022 hPa | 0 mm | - | - | - |
| 1777945914 | 25° C | 13% | 1021 hPa | 0 mm | - | - | - |
| 1777945314 | 24.44° C | 13% | 1021 hPa | 0 mm | - | - | - |
* Rain latest hour (hover to see other rain measurements)
** Current wind speed in m/s (hover to see current wind gust speed)